User: anonymous   Login
Location: Unspecified
(0.0000°N, 0.0000°E)
Time: 08:23:22
(UTC+00:00)
Language:

Mayak - Orbit

View from above orbital plane
View from above orbital plane
View from above satellite
View from above satellite

Ground track
Ground track

The orbit data is extracted from the following two-line orbital elements,

1 42830U 17042F   17293.80294021  .00001085  00000-0  11541-3 0  9998
2 42830  97.6079 199.9670 0012977 275.3365  84.6373 14.90875787 14669
Epoch (UTC): 20 October 2017 19:16:14
Eccentricity: 0.0012977
inclination: 97.6079°
perigee height: 586 km
apogee height: 604 km
right ascension of ascending node: 199.9670°
argument of perigee: 275.3365°
revolutions per day: 14.90875787
mean anomaly at epoch: 84.6373°
orbit number at epoch: 1466

The dashed part of the orbit path shows where the satellite is in the earth's shadow,  

DLR